Voltar ao catálogo

STARLINK-11633

AtivoComunicaçõesVLEO
NORAD 63317·PAYLOAD·🇺🇸 United States

Lançado Mar 18, 2025 de Cape Canaveral Space Force Station

Loading…

Próximas Passagens (próximas 24 horas)

TLE

AtualizadoSource: CelesTrak SupGP

Época: Sep 14, 2026, 20:42 UTC

1 63317C 25057L   26257.86298611  .00067742  00000+0  52638-3 0  2571
2 63317  43.0007 203.8464 0001717 248.8457 131.7167 15.70794105    13

Acompanhe STARLINK-11633 em tempo real com AllMySat

Download on the App Store